TimeCST,TemperatureF,Dew PointF,Humidity,Sea Level PressureIn,VisibilityMPH,Wind Direction,Wind SpeedMPH,Gust SpeedMPH,PrecipitationIn,Events,Conditions,WindDirDegrees,DateUTC
12:53 AM,32.0,30.9,96,30.14,9.0,North,10.4,-,0.00,,Overcast,360,2013-01-16 06:53:00
1:53 AM,32.0,30.9,96,30.13,10.0,North,12.7,-,0.00,,Overcast,360,2013-01-16 07:53:00
2:53 AM,32.0,30.0,92,30.15,9.0,North,12.7,-,N/A,,Overcast,360,2013-01-16 08:53:00
3:53 AM,32.0,30.0,92,30.14,8.0,North,9.2,-,N/A,,Overcast,10,2013-01-16 09:53:00
4:53 AM,32.0,30.0,92,30.17,10.0,NNW,11.5,-,N/A,,Overcast,340,2013-01-16 10:53:00
5:53 AM,32.0,28.9,88,30.16,10.0,NNW,11.5,-,N/A,,Overcast,340,2013-01-16 11:53:00
6:36 AM,30.2,28.4,93,30.11,10.0,North,13.8,-,N/A,,Overcast,350,2013-01-16 12:36:00
6:53 AM,30.9,28.0,89,30.17,10.0,North,11.5,-,N/A,,Overcast,350,2013-01-16 12:53:00
7:53 AM,32.0,28.0,85,30.19,10.0,North,11.5,-,N/A,,Overcast,360,2013-01-16 13:53:00
8:53 AM,32.0,28.9,88,30.21,10.0,North,10.4,-,N/A,,Overcast,360,2013-01-16 14:53:00
9:43 AM,32.0,28.4,87,30.18,10.0,NNE,8.1,-,N/A,,Overcast,30,2013-01-16 15:43:00
9:53 AM,32.0,28.0,85,30.20,10.0,NE,9.2,-,N/A,,Overcast,40,2013-01-16 15:53:00
10:35 AM,33.8,28.4,81,30.17,10.0,NNE,9.2,-,N/A,,Overcast,30,2013-01-16 16:35:00
10:53 AM,33.1,28.9,85,30.19,10.0,NNE,9.2,-,N/A,,Overcast,20,2013-01-16 16:53:00
11:53 AM,33.1,28.9,85,30.21,10.0,NNW,9.2,-,0.00,,Overcast,330,2013-01-16 17:53:00
12:53 PM,33.1,28.9,85,30.17,10.0,North,5.8,-,N/A,,Overcast,350,2013-01-16 18:53:00
1:53 PM,34.0,30.0,85,30.17,10.0,NNW,4.6,-,N/A,,Overcast,340,2013-01-16 19:53:00
2:53 PM,35.1,30.9,85,30.15,10.0,North,8.1,-,N/A,,Overcast,360,2013-01-16 20:53:00
3:53 PM,35.1,30.9,85,30.16,10.0,North,5.8,-,N/A,,Overcast,350,2013-01-16 21:53:00
4:53 PM,35.1,30.9,85,30.18,10.0,NNW,9.2,-,N/A,,Overcast,330,2013-01-16 22:53:00
5:53 PM,35.1,30.9,85,30.19,10.0,NW,8.1,-,N/A,,Overcast,320,2013-01-16 23:53:00
6:53 PM,35.1,32.0,89,30.18,10.0,North,4.6,-,N/A,,Overcast,350,2013-01-17 00:53:00
7:53 PM,36.0,32.0,86,30.20,10.0,NNW,6.9,-,N/A,,Overcast,330,2013-01-17 01:53:00
8:53 PM,36.0,30.9,82,30.22,10.0,WNW,4.6,-,N/A,,Overcast,300,2013-01-17 02:53:00
9:53 PM,36.0,30.9,82,30.21,10.0,WNW,3.5,-,N/A,,Overcast,300,2013-01-17 03:53:00
10:53 PM,36.0,32.0,86,30.19,10.0,WNW,5.8,-,N/A,,Overcast,300,2013-01-17 04:53:00
11:53 PM,36.0,30.9,82,30.20,10.0,West,5.8,-,N/A,,Overcast,280,2013-01-17 05:53:00